Regional Weather Roundup
Issued by NWS

Home | Current Version | Previous Version | Graphics & Text | Print | Product List | Glossary On
Versions: 1 2 3 4 5 6 7 8 9 10 11 12 13 14 15 16 17 18 19 20 21 22 23 24 25 26 27 28 29 30 31 32 33 34 35 36 37 38 39 40 41 42 43 44 45 46 47 48 49 50
000
ASUS43 KLSX 222259
RWRMO

WEATHER SUMMARY FOR MISSOURI
NATIONAL WEATHER SERVICE SPRINGFIELD MO
600 PM CDT FRI MAY 22 2015

NOTE: "FAIR" INDICATES FEW OR NO CLOUDS BELOW 12,000 FEET WITH NO
       SIGNIFICANT WEATHER AND/OR OBSTRUCTIONS TO VISIBILITY.
       CURRENT SKY AND/OR WEATHER CONDITIONS ARE NOT AVAILABLE FOR
       CHILLICOTHE AND FARMINGTON.

MOZ001>031-035>038-043-044-053-054-230000-
...NORTHERN AND WESTERN MISSOURI...

CITY           SKY/WX    TMP DP  RH WIND       PRES   REMARKS
KANSAS CTY INT CLOUDY    64  50  60 S6        30.22F
KANSAS C DTWN  CLOUDY    66  47  50 SE7       30.22S
LEE`S SUMMIT   CLOUDY    63  53  70 S5        30.23F
ST JOSEPH      CLOUDY    65  49  56 SE8       30.22F
KIRKSVILLE     CLOUDY    66  54  65 SW6       30.24S

$$
MOZ066>068-077>081-088>096-101>105-230000-
...SOUTHWEST MISSOURI...

CITY           SKY/WX    TMP DP  RH WIND       PRES   REMARKS
SPRINGFIELD    CLOUDY    64  47  53 SE9       30.21S
JOPLIN         CLOUDY    65  48  54 SE12      30.20S

$$
MOZ032>034-039>042-045>050-055>058-069>072-230000-
...CENTRAL MISSOURI...

CITY           SKY/WX    TMP DP  RH WIND       PRES   REMARKS
COLUMBIA       PTSUNNY   67  53  61 S6        30.25R
JEFFERSON CITY CLOUDY    70  48  45 SW6       30.24R
ROLLA          CLOUDY    68  50  52 S5        30.24R
SEDALIA        CLOUDY    67  51  56 E8        30.23F
OSAGE BEACH    CLOUDY    66  52  59 E3        30.24F

$$
MOZ051-052-059>065-230000-
...EAST CENTRAL MISSOURI...

CITY           SKY/WX    TMP DP  RH WIND       PRES   REMARKS
ST LOUIS INTL  CLOUDY    74  49  41 W8        30.23F
SPIRIT OF STL  PTSUNNY   74  52  46 W6        30.22S
ST CHARLES     CLOUDY    73  50  44 W9        30.22S

$$
MOZ072>076-082>087-097>100-106>115-230000-
...SOUTH CENTRAL AND SOUTHEAST MISSOURI...

CITY           SKY/WX    TMP DP  RH WIND       PRES   REMARKS
CAPE GIRARDEAU PTSUNNY   69  52  54 CALM      30.25S
FARMINGTON     CLOUDY    70  48  46 S6        30.28S
POPLAR BLUFF   CLOUDY    69  48  47 VRB6      30.24F
WEST PLAINS    CLOUDY    65  49  56 E6        30.26F

$$



USA.gov is the U.S. government's official web portal to all federal, state and local government web resources and services.